Home > Weather > Muktsar > Past weeks

Flag for India Past Weather in Muktsar, Punjab, India — Yesterday and Last 2 Weeks

Now
99 °F

Scattered clouds.


Feels Like: 121 °F
Forecast: 85 / 98 °F
Wind: 6 mph from East

Location: Lahore Airport

Current Time: Jul 26, 2016 at 1:57:14 PM

Latest Report: Jul 26, 2016 at 1:25 PM


Visibility: 4 mi

Pressure: 29.62 "Hg

Humidity: 57%

Dew Point: 81 °F

Location of MuktsarLocation

Past Weather in Muktsar — Graph

°F

Muktsar Temperature Yesterday

Maximum temperature yesterday: 95 °F (at 10:30 AM)
Minimum temperature yesterday: 75 °F (at 12:00 PM)
Average temperature yesterday: 87 °F

High & Low Weather Summary for the Past Weeks

 TemperatureHumidityPressure
High104 °F (Jul 20, 2:55 PM)100% (Jul 17, 3:25 AM)32.46 "Hg (Jul 17, 3:25 AM)
Low73 °F (Jul 17, 4:25 AM)38% (Jul 20, 3:29 PM)29.42 "Hg (Jul 11, 3:25 PM)
Average89 °F71%29.54 "Hg
* Reported Jul 11 12:25 PM — Jul 26 12:25 PM, Muktsar, Weather by CustomWeather, © 2016

Note: Actual official high and low records may vary slightly from our data, if they occured in-between our weather recording intervals... More about our weather records

Advertising

Muktsar Weather History for the Previous 24 Hours

Scroll right to see more
 ConditionsComfort  
Time TempWeatherWind HumidityBarometerVisibility
12:25 PM
Tue, Jul 26
97 °FPassing clouds.6 mph56%29.65 "Hg3 mi
11:55 AM95 °FScattered clouds.5 mph63%29.65 "Hg3 mi
11:25 AM95 °FScattered clouds.6 mph63%29.65 "Hg3 mi
10:55 AM93 °FScattered clouds.5 mph67%29.65 "Hg3 mi
10:25 AM91 °FScattered clouds.5 mph75%29.65 "Hg3 mi
9:55 AM90 °FPassing clouds.5 mph75%29.65 "Hg3 mi
9:25 AM90 °FPassing clouds.7 mph75%29.65 "Hg2 mi
8:55 AM90 °FScattered clouds.7 mph71%29.65 "Hg2 mi
8:25 AM88 °FScattered clouds.6 mph75%29.62 "Hg2 mi
7:59 AM86 °FScattered clouds.3 mph75%29.62 "Hg1 mi
7:29 AM86 °FPassing clouds.5 mph75%29.62 "Hg1 mi
6:55 AM84 °FPassing clouds.5 mph79%29.62 "Hg1 mi
6:29 AM84 °FPassing clouds.6 mph79%29.62 "Hg2 mi
5:59 AM84 °FThunderstorms. Smoke.2 mph74%29.62 "HgN/A
5:29 AM84 °FPassing clouds.6 mph74%29.59 "Hg2 mi
4:59 AM84 °FClear.3 mph79%29.59 "Hg2 mi
4:29 AM84 °FClear.5 mph79%29.59 "Hg2 mi
3:59 AM84 °FClear.5 mph79%29.59 "Hg2 mi
3:25 AM84 °FClear.5 mph79%29.59 "Hg2 mi
2:55 AM86 °FClear.3 mph75%29.59 "Hg2 mi
2:25 AM86 °FClear.5 mph75%29.59 "Hg2 mi
1:55 AM86 °FClear.3 mph70%29.59 "Hg2 mi
1:25 AM86 °FClear.5 mph70%29.59 "Hg2 mi
12:55 AM86 °FClear.5 mph70%29.59 "Hg2 mi
12:25 AM86 °FClear.3 mph70%29.59 "Hg2 mi
11:25 PM
Mon, Jul 25
88 °FClear.6 mph66%29.59 "Hg2 mi
10:59 PM88 °FPassing clouds.6 mph70%29.53 "Hg2 mi
10:29 PM88 °FPassing clouds.6 mph66%29.59 "Hg2 mi
9:59 PM90 °FPassing clouds.5 mph63%29.59 "Hg3 mi
8:55 PM90 °FPassing clouds.3 mph63%29.56 "Hg3 mi
8:25 PM90 °FPassing clouds.5 mph63%29.56 "Hg3 mi
8:00 PM91 °FPassing clouds.3 mph59%29.53 "Hg3 mi
7:30 PM91 °FClear.5 mph59%29.53 "Hg4 mi
7:00 PM91 °FClear.No wind59%29.53 "Hg4 mi
6:30 PM91 °FClear.No wind59%29.53 "Hg4 mi
6:00 PM91 °FPassing clouds.3 mph56%29.56 "Hg4 mi
5:30 PM93 °FPassing clouds.3 mph56%29.56 "Hg4 mi
5:00 PM91 °FScattered clouds.3 mph59%29.56 "Hg4 mi
4:30 PM91 °FScattered clouds.6 mph59%29.59 "Hg4 mi
4:00 PM90 °FScattered clouds.7 mph59%29.59 "Hg4 mi
3:30 PM90 °FScattered clouds.7 mph59%29.59 "Hg4 mi
3:00 PM88 °FScattered clouds.6 mph66%29.59 "Hg4 mi
2:30 PM84 °FScattered clouds.3 mph70%29.62 "Hg4 mi
2:00 PM82 °FScattered clouds.6 mph79%29.62 "Hg4 mi
1:30 PM81 °FScattered clouds.3 mph84%29.53 "Hg4 mi
1:00 PM79 °FBroken clouds.3 mph94%29.65 "Hg3 mi
Weather by CustomWeather, © 2016

See weather overviewHow to use our weather pages